Location: Igri�s
(42.2144°N, 0.4320°W)
Time: 10:03:49
(UTC+00:00)

Okean 1 - Pass Details

Date: 13 August 2020
Orbit: 539 x 554 km, 82.5° (Epoch: 18 September)

Event Time Altitude Azimuth Distance (km) Brightness Sun altitude
Rises 21:34:50 0° 346° (NNW) 2,740 7.9 -23.6°
Reaches altitude 10° 21:37:04 10° 340° (NNW) 1,842 6.9 -23.9°
Maximum altitude 21:40:57 47° 267° (W) 742 4.1 -24.3°
Enters shadow 21:41:18 46° 250° (WSW) 756 4.0 -24.4°
